SNUSAT-1 (42727 NORAD) Tracking and Keplerian Element Data

This shows tracking and keplerian element data for the satellite.

Feedback or suggestion? Click here.




ElementValue
Catalog42727
NameSNUSAT-1
Epoch Orbit8441
Epoch Day320.1653776
Epoch Year2018
RAAN298.2558
Inclination51.6321
Eccentricity0.0007017
Argument of Perigee65.2579
Mean Anonmoly294.9152
Mean Motion15.79329858
Decay Rate0.00045538
L11 42727U 98067MG 18320.16537760 .00045538 00000-0 24922-3 0 9998
L22 42727 51.6321 298.2558 0007017 65.2579 294.9152 15.79329858 84416

Live tracking and technical data element details for SNUSAT-1 (NORAD 42727). SNUSAT-1 can be tracked NOW for your location showing map with azimuth and elevation plus other details from your city location.

Track the satellite on the map from your city or location and see movement details for azimuth, elevation, latitude, longitude, range, height, and movement on the map or in text.







IsCatalogInMostPopularTable: catalog: 42727, numindb: 143
Update: records affected: 1



GetName: 42727 SNUSAT-1

Hit Count: updated at: Fri, 16 Nov 2018 11:51:38 GMT